Showing default

INTELSAT 905, 27438

Orbit data source: Space-Track

INTELSAT 905, 27438 is a payload satellite owned by Intelsat Ltd (US) (US) in GEO that was launched on Wed, 05 Jun 2002 UTC via an ARIANE 44L launch vehicle from the French Guiana (FRGUI). Payload-class satellites include a variety of spacecraft equipped with specific instruments for various scientific and technological missions. These include communications satellites like Starlink; space stations such as the ISS; scientific satellites like the Hubble; Earth observation satellites from companies like Planet Labs, Umbra, and HawkEye 360; GPS; miniature CubeSats for education and research; and military/defense satellites.

Loading next visibility...
Identifier
27438, 2002-027A
Orbit
GEO
Country
Flag of UnknownUnknown / ITSO
Related business
Manufacturer
SS/Loral
Mission
Operational Commercial Communications
Bus & Motor
FS-1300HL, R-4D-15-260
Mass
4,723 kg wet, 1,984 kg dry
Launch date (UTC)
2002-06-05 (23 years ago)
Launch vehicle
ARIANE 44L
Launch site
French Guiana (FRGUI)
Object type
Payload
Rocket body
Debris
Shape & HBR
Box + 2 Pan + 2 Dish, 15.5 m
Radar Cross Section
40.765 m², Large (>1 m²)

Expand to show TLE details & history
Last TLE update: 8 hours ago

TLE from 8 hours ago
0 INTELSAT 905
1 27438U 02027A   25307.93785549  .00000109  00000-0  00000-0 0  9992
2 27438   6.1844  72.5026 0002825 157.8845  13.5295  1.00273936 49106
Epoch: 2025-11-03T22:30Z
TLE epoch observation values (Epoch: 2025-11-03T22:30:30.714Z)
Latitude
0.91429°
Longitude
-137.1206°
Altitude
35,773.746 km
Speed
3.076 km/s
True Right ascension
16h 15m 45s
True Declination
0° 54' 48"
Sunlit
Object was in daylight at epoch
Visualization orbit readout
Latitude
Unknown
Longitude
Unknown
Altitude
Unknown
Speed
Unknown
Apparent Right ascension
Unknown
Apparent Declination
Unknown
Sunlit
N/A
Visualization observer readout
Local Sidereal Time
02:35:24
Azimuth
Unknown
Elevation
Unknown
Doppler factor
Unknown
Orbital elements
Apogee altitude
35,798.956 km
Perigee altitude
35,775.133 km
Semi-major axis
42,165.181 km
Eccentricity
0.00028
Inclination
6.1844°
RAAN
72.5026°
Arg. of periapsis
157.8845°
True anomaly
13.53708°
Mean anomaly
13.5295°
Eccentric anomaly
13.53329°
Mean motion
0.25068 °/min
Orbital period
1,436.12 mins
BSTAR
0
Loading maneuver chart data...
Computing Atmospheric mass density...
Loading historical data...
Loading historical data...
Loading historical data...
Loading historical data...
Loading historical data...
Loading historical data...
Loading historical data...
Other satellites on launch #27 in the year 2002 (2002-06-05 UTC)

Documentation

Showing up to 5 results
|